ABX152 KJFK-KCVG

Flight info

Callsign ABX152
Flight time N/A
Altitude 36000
Route RBV Q430 SAAME/N0454F320 J6 COLNS GAVNN7
Aircraft B763/H-SDE3FGHIM3RWXY/LB1

Departure

Time 2026-05-01 12:00
Airport John F. Kennedy International Airport (KJFK)

Arrival

Time N/A
Airport Cincinnati Northern Kentucky International Airport (KCVG)
Time Latitude Longitude Altitude Speed Heading
2026-05-01 11:41 40.65639 -73.77932 23 ft 0 kts 214°
2026-05-01 11:45 40.65645 -73.77927 23 ft 0 kts 214°
2026-05-01 11:45 40.65654 -73.77919 23 ft 2 kts 207°
2026-05-01 11:46 40.65669 -73.77912 23 ft 2 kts 188°
2026-05-01 11:46 40.65684 -73.77911 23 ft 2 kts 173°
2026-05-01 11:46 40.65699 -73.77915 23 ft 2 kts 158°
2026-05-01 11:46 40.65712 -73.77925 23 ft 2 kts 143°
2026-05-01 11:47 40.65723 -73.77939 23 ft 2 kts 127°
2026-05-01 11:47 40.65728 -73.77947 23 ft 1 kts 119°
2026-05-01 11:47 40.65730 -73.77951 23 ft 0 kts 120°
2026-05-01 11:49 40.65729 -73.77950 23 ft 0 kts 120°
2026-05-01 11:49 40.65725 -73.77941 23 ft 1 kts 120°
2026-05-01 11:49 40.65714 -73.77915 23 ft 7 kts 120°
2026-05-01 11:49 40.65669 -73.77814 23 ft 16 kts 120°
2026-05-01 11:50 40.65589 -73.77758 23 ft 12 kts 197°
2026-05-01 11:50 40.65499 -73.77824 23 ft 17 kts 210°
2026-05-01 11:50 40.65373 -73.77854 23 ft 21 kts 134°
2026-05-01 11:50 40.65309 -73.77718 23 ft 16 kts 120°
2026-05-01 11:51 40.65255 -73.77596 23 ft 14 kts 120°
2026-05-01 11:51 40.65208 -73.77490 23 ft 12 kts 120°
2026-05-01 11:51 40.65155 -73.77370 23 ft 17 kts 120°
2026-05-01 11:51 40.65090 -73.77228 23 ft 17 kts 121°
2026-05-01 11:52 40.65029 -73.77100 23 ft 15 kts 122°
2026-05-01 11:52 40.64968 -73.76965 23 ft 17 kts 121°
2026-05-01 11:52 40.64897 -73.76942 23 ft 7 kts 233°
2026-05-01 11:52 40.64871 -73.76997 23 ft 7 kts 238°
2026-05-01 11:53 40.64825 -73.77071 23 ft 14 kts 217°
2026-05-01 11:53 40.64715 -73.77033 23 ft 17 kts 148°
2026-05-01 11:53 40.64602 -73.76989 23 ft 16 kts 181°
2026-05-01 11:53 40.64483 -73.76994 23 ft 18 kts 182°
2026-05-01 11:54 40.64357 -73.77046 23 ft 17 kts 208°
2026-05-01 11:54 40.64246 -73.77133 23 ft 19 kts 211°
2026-05-01 11:54 40.64129 -73.77227 23 ft 20 kts 211°
2026-05-01 11:54 40.64005 -73.77322 23 ft 21 kts 208°
2026-05-01 11:55 40.63894 -73.77406 23 ft 17 kts 210°
2026-05-01 11:55 40.63786 -73.77490 23 ft 18 kts 211°
2026-05-01 11:55 40.63674 -73.77581 23 ft 19 kts 212°
2026-05-01 11:55 40.63557 -73.77677 23 ft 20 kts 211°
2026-05-01 11:56 40.63447 -73.77760 23 ft 17 kts 210°
2026-05-01 11:56 40.63337 -73.77828 23 ft 17 kts 160°
2026-05-01 11:56 40.63262 -73.77702 23 ft 17 kts 121°
2026-05-01 11:56 40.63202 -73.77569 23 ft 14 kts 120°
2026-05-01 11:57 40.63150 -73.77452 23 ft 14 kts 120°
2026-05-01 11:57 40.63097 -73.77335 23 ft 15 kts 121°
2026-05-01 11:57 40.63039 -73.77209 23 ft 16 kts 121°
2026-05-01 11:57 40.62970 -73.77100 23 ft 13 kts 179°
2026-05-01 11:58 40.62889 -73.77135 23 ft 12 kts 208°
2026-05-01 11:58 40.62832 -73.77209 23 ft 11 kts 256°
2026-05-01 11:58 40.62839 -73.77256 23 ft 0 kts 296°
2026-05-01 11:59 40.62841 -73.77263 23 ft 5 kts 296°
2026-05-01 11:59 40.62934 -73.77476 23 ft 48 kts 300°
2026-05-01 11:59 40.63181 -73.78025 23 ft 90 kts 301°
2026-05-01 12:00 40.64132 -73.80131 40 ft 172 kts 300°
2026-05-01 12:00 40.64693 -73.81551 542 ft 172 kts 287°
2026-05-01 12:00 40.63930 -73.83962 1020 ft 150 kts 204°
2026-05-01 12:01 40.62938 -73.84454 1221 ft 158 kts 205°
2026-05-01 12:01 40.61877 -73.85018 1381 ft 170 kts 205°
2026-05-01 12:01 40.60730 -73.85626 1558 ft 183 kts 205°
2026-05-01 12:01 40.59516 -73.86399 1760 ft 199 kts 215°
2026-05-01 12:02 40.58373 -73.87508 2062 ft 211 kts 223°
2026-05-01 12:02 40.57268 -73.88876 2390 ft 225 kts 228°
2026-05-01 12:02 40.56168 -73.90427 2836 ft 236 kts 231°
2026-05-01 12:02 40.55090 -73.92065 3518 ft 237 kts 232°
2026-05-01 12:03 40.54033 -73.93739 4223 ft 238 kts 233°
2026-05-01 12:03 40.52984 -73.95436 4941 ft 239 kts 233°
2026-05-01 12:03 40.51935 -73.97156 5668 ft 240 kts 233°
2026-05-01 12:03 40.50899 -73.98865 6388 ft 241 kts 233°
2026-05-01 12:04 40.49859 -74.00590 7112 ft 243 kts 233°
2026-05-01 12:04 40.48806 -74.02338 7841 ft 244 kts 233°
2026-05-01 12:04 40.47750 -74.04092 8567 ft 245 kts 232°
2026-05-01 12:04 40.46682 -74.05868 9295 ft 246 kts 232°
2026-05-01 12:05 40.45625 -74.07625 10002 ft 248 kts 231°
2026-05-01 12:05 40.43354 -74.11391 10801 ft 279 kts 231°
2026-05-01 12:05 40.42104 -74.13462 11166 ft 296 kts 230°
2026-05-01 12:06 40.40792 -74.15636 11638 ft 310 kts 230°
2026-05-01 12:06 40.39445 -74.17870 12402 ft 314 kts 230°
2026-05-01 12:06 40.38076 -74.20134 13193 ft 316 kts 230°
2026-05-01 12:06 40.36703 -74.22405 13954 ft 319 kts 230°
2026-05-01 12:07 40.35306 -74.24713 14701 ft 322 kts 230°
2026-05-01 12:07 40.33912 -74.27014 15421 ft 324 kts 230°
2026-05-01 12:07 40.32491 -74.29359 16139 ft 327 kts 229°
2026-05-01 12:07 40.31076 -74.31693 16839 ft 330 kts 229°
2026-05-01 12:08 40.29640 -74.34059 17540 ft 332 kts 229°
2026-05-01 12:08 40.28177 -74.36468 18248 ft 335 kts 229°
2026-05-01 12:08 40.26715 -74.38873 18933 ft 338 kts 229°
2026-05-01 12:08 40.25239 -74.41299 19605 ft 341 kts 229°
2026-05-01 12:09 40.23756 -74.43735 20277 ft 344 kts 229°
2026-05-01 12:09 40.22269 -74.46176 20929 ft 347 kts 229°
2026-05-01 12:09 40.20890 -74.48799 21540 ft 354 kts 239°
2026-05-01 12:09 40.20088 -74.51900 22161 ft 365 kts 254°
2026-05-01 12:10 40.19789 -74.55241 22759 ft 372 kts 258°
2026-05-01 12:10 40.19257 -74.62074 23956 ft 378 kts 258°
2026-05-01 12:10 40.18988 -74.65507 24505 ft 382 kts 257°
2026-05-01 12:11 40.18433 -74.72522 25668 ft 387 kts 257°
2026-05-01 12:11 40.18154 -74.76028 26206 ft 391 kts 257°
2026-05-01 12:11 40.17868 -74.79597 26740 ft 394 kts 257°
2026-05-01 12:12 40.17577 -74.83233 27331 ft 396 kts 257°
2026-05-01 12:12 40.17285 -74.86845 27818 ft 401 kts 257°
2026-05-01 12:12 40.16991 -74.90494 28359 ft 403 kts 257°
2026-05-01 12:12 40.16694 -74.94161 28911 ft 406 kts 257°
2026-05-01 12:13 40.16394 -74.97840 29435 ft 408 kts 257°
2026-05-01 12:13 40.16089 -75.01571 29982 ft 410 kts 256°
2026-05-01 12:13 40.15783 -75.05299 30512 ft 412 kts 256°
2026-05-01 12:13 40.15470 -75.09084 30974 ft 415 kts 256°
2026-05-01 12:14 40.15158 -75.12851 31490 ft 417 kts 256°
2026-05-01 12:14 40.14843 -75.16647 31940 ft 419 kts 256°
2026-05-01 12:14 40.14520 -75.20507 32336 ft 422 kts 256°
2026-05-01 12:14 40.14203 -75.24297 32850 ft 421 kts 255°
2026-05-01 12:15 40.13880 -75.28145 33362 ft 420 kts 255°
2026-05-01 12:15 40.13559 -75.31950 33842 ft 419 kts 255°
2026-05-01 12:15 40.13236 -75.35766 34309 ft 418 kts 255°
2026-05-01 12:15 40.12913 -75.39555 34748 ft 416 kts 255°
2026-05-01 12:16 40.12590 -75.43320 35092 ft 417 kts 255°
2026-05-01 12:16 40.12268 -75.47072 35492 ft 416 kts 255°
2026-05-01 12:16 40.11942 -75.50854 35896 ft 413 kts 255°
2026-05-01 12:16 40.11615 -75.54631 36031 ft 415 kts 255°
2026-05-01 12:17 40.10963 -75.62133 36028 ft 412 kts 255°
2026-05-01 12:17 40.10309 -75.69585 36037 ft 411 kts 254°
2026-05-01 12:18 40.09647 -75.77064 36033 ft 412 kts 254°
2026-05-01 12:18 40.08981 -75.84559 36029 ft 411 kts 254°
2026-05-01 12:19 40.08315 -75.91984 36032 ft 412 kts 254°
2026-05-01 12:19 40.07641 -75.99466 36031 ft 411 kts 255°
2026-05-01 12:20 40.06961 -76.06961 36028 ft 411 kts 254°
2026-05-01 12:20 40.06278 -76.14413 36032 ft 411 kts 255°
2026-05-01 12:21 40.05596 -76.21820 36032 ft 410 kts 254°
2026-05-01 12:21 40.04903 -76.29283 36033 ft 412 kts 254°
2026-05-01 12:22 40.04203 -76.36781 36032 ft 411 kts 254°
2026-05-01 12:22 40.03489 -76.44238 36036 ft 409 kts 252°
2026-05-01 12:23 40.02811 -76.47798 36041 ft 398 kts 243°
2026-05-01 12:23 40.01659 -76.51078 36047 ft 391 kts 235°
2026-05-01 12:23 39.98915 -76.57256 36040 ft 390 kts 234°
2026-05-01 12:24 39.96144 -76.63329 36035 ft 389 kts 233°
2026-05-01 12:24 39.93338 -76.69401 36040 ft 389 kts 233°
2026-05-01 12:25 39.89090 -76.78527 36052 ft 388 kts 233°
2026-05-01 12:26 39.86261 -76.84579 36055 ft 389 kts 233°
2026-05-01 12:26 39.82039 -76.93587 36049 ft 386 kts 232°
2026-05-01 12:27 39.77795 -77.02611 36049 ft 386 kts 233°
2026-05-01 12:28 39.73555 -77.11600 36051 ft 387 kts 232°
2026-05-01 12:29 39.69295 -77.20605 36050 ft 387 kts 232°
2026-05-01 12:29 39.65050 -77.29555 36055 ft 387 kts 232°
2026-05-01 12:30 39.60806 -77.38477 36061 ft 385 kts 232°
2026-05-01 12:31 39.57949 -77.44465 36068 ft 386 kts 232°
2026-05-01 12:31 39.55107 -77.50414 36076 ft 387 kts 232°
2026-05-01 12:32 39.52266 -77.56353 36072 ft 386 kts 232°
2026-05-01 12:32 39.47974 -77.65296 36065 ft 386 kts 232°
2026-05-01 12:33 39.45141 -77.71188 36061 ft 385 kts 232°
2026-05-01 12:33 39.42275 -77.77134 36053 ft 386 kts 232°
2026-05-01 12:34 39.39437 -77.83015 36052 ft 386 kts 232°
2026-05-01 12:34 39.36833 -77.89153 36053 ft 390 kts 236°
2026-05-01 12:35 39.34340 -77.95468 36049 ft 391 kts 236°
2026-05-01 12:35 39.31850 -78.01746 36048 ft 389 kts 236°
2026-05-01 12:36 39.29366 -78.07993 36047 ft 389 kts 236°
2026-05-01 12:36 39.26886 -78.14212 36040 ft 389 kts 236°
2026-05-01 12:37 39.24375 -78.20494 36039 ft 390 kts 236°
2026-05-01 12:37 39.21883 -78.26717 36035 ft 389 kts 236°
2026-05-01 12:38 39.19381 -78.32952 36034 ft 389 kts 236°
2026-05-01 12:38 39.16869 -78.39196 36038 ft 389 kts 236°
2026-05-01 12:39 39.14349 -78.45451 36032 ft 389 kts 236°
2026-05-01 12:39 39.11837 -78.51674 36037 ft 389 kts 236°
2026-05-01 12:40 39.09322 -78.57892 36045 ft 390 kts 236°
2026-05-01 12:40 39.06808 -78.64095 36048 ft 390 kts 236°
2026-05-01 12:41 39.04290 -78.70293 36057 ft 388 kts 236°
2026-05-01 12:41 39.01772 -78.76479 36054 ft 388 kts 236°
2026-05-01 12:42 38.99252 -78.82655 36056 ft 389 kts 236°
2026-05-01 12:42 38.96716 -78.88859 36057 ft 390 kts 237°
2026-05-01 12:43 38.94180 -78.95050 36055 ft 390 kts 237°
2026-05-01 12:43 38.91628 -79.01266 36053 ft 389 kts 237°
2026-05-01 12:44 38.89091 -79.07439 36068 ft 386 kts 237°
2026-05-01 12:45 38.84453 -79.19827 36085 ft 392 kts 250°
2026-05-01 12:45 38.83949 -79.26920 36077 ft 399 kts 261°
2026-05-01 12:46 38.83785 -79.34089 36053 ft 399 kts 260°
2026-05-01 12:46 38.83630 -79.41316 36062 ft 397 kts 261°
2026-05-01 12:47 38.83483 -79.48360 36066 ft 395 kts 260°
2026-05-01 12:47 38.83330 -79.55479 36045 ft 393 kts 261°
2026-05-01 12:48 38.83172 -79.62601 36064 ft 400 kts 261°
2026-05-01 12:48 38.83014 -79.69730 36090 ft 394 kts 261°
2026-05-01 12:49 38.82853 -79.76811 36047 ft 394 kts 260°
2026-05-01 12:49 38.82683 -79.83912 36048 ft 400 kts 260°
2026-05-01 12:50 38.82516 -79.90981 36039 ft 390 kts 261°
2026-05-01 12:50 38.82337 -79.98073 36070 ft 398 kts 261°
2026-05-01 12:51 38.82160 -80.05158 36068 ft 393 kts 261°
2026-05-01 12:52 38.81878 -80.15779 36063 ft 398 kts 260°
2026-05-01 12:52 38.81592 -80.26393 36045 ft 394 kts 261°
2026-05-01 12:53 38.81297 -80.36997 36033 ft 394 kts 260°
2026-05-01 12:54 38.81092 -80.44077 36026 ft 390 kts 261°
2026-05-01 12:54 38.80783 -80.54569 36014 ft 398 kts 261°
2026-05-01 12:55 38.80460 -80.65230 36028 ft 397 kts 259°
2026-05-01 12:56 38.80241 -80.72288 36033 ft 390 kts 260°
2026-05-01 12:56 38.80016 -80.79304 36052 ft 398 kts 259°
2026-05-01 12:57 38.79791 -80.86316 36032 ft 384 kts 261°
2026-05-01 12:57 38.79437 -80.96827 36046 ft 397 kts 260°
2026-05-01 12:58 38.78824 -81.03784 36040 ft 390 kts 253°
2026-05-01 12:59 38.77086 -81.14140 36024 ft 393 kts 255°
2026-05-01 12:59 38.75331 -81.24479 36028 ft 395 kts 255°
2026-05-01 13:00 38.73549 -81.34879 36034 ft 395 kts 255°
2026-05-01 13:01 38.71773 -81.45172 36041 ft 393 kts 254°
2026-05-01 13:02 38.69981 -81.55505 36037 ft 393 kts 255°